Estherville, IA

3:28 AM CST on January 22, 2017 (GMT -0600)
Estherville Municipal

Weather History for KEST - January, 2013

Change the Weather History Date:

Sunday, January 6, 2013

  Actual Average Record
Temperature  
Mean Temperature 15 °F 16 °F  
Max Temperature 21 °F 24 °F 45 °F (2012)
Min Temperature 8 °F 7 °F -26 °F (1988)
Degree Days  
Heating Degree Days 50 50  
Month to date heating degree days 302 295  
Since 1 July heating degree days 3230 3438  
Cooling Degree Days 0 0  
Month to date cooling degree days 0 0  
Year to date cooling degree days 0 0  
Moisture  
Dew Point 10 °F    
Average Humidity 81    
Maximum Humidity 91    
Minimum Humidity 70    
Precipitation  
Precipitation 0.00 in 0.00 in 0.65 in (1969)
Month to date precipitation T 0.04  
Sea Level Pressure  
Sea Level Pressure 30.22 in    
Wind  
Wind Speed 11 mph (WSW)    
Max Wind Speed 21 mph    
Max Gust Speed 24 mph    
Visibility 10 miles    
Events      
T = Trace of Precipitation, MM = Missing Value Source: NWS Daily Summary

Daily Weather History Graph

Daily Weather History Graph

Search for Another Location

Airport or City:

Trip Planner

Search our weather history database for the weather conditions in past years. The results will help you decide how hot, cold, wet, or windy it might be!

Date:

Astronomy

Jan. 06, 2013 Rise Set
Actual Time 7:51 AM CST 4:58 PM CST
Civil Twilight 7:19 AM CST 5:31 PM CST
Nautical Twilight 6:43 AM CST 6:06 PM CST
Astronomical Twilight 6:08 AM CST 6:41 PM CST
Moon 2:02 AM CST (1/6) 12:29 PM CST (1/6)
Length of Visible Light 10h 11m
Length of Day
9h 07m
Waning Crescent, 33% of the Moon is Illuminated
Jan 6
Waning Crescent
Jan 11
New
Jan 18
First Quarter
Jan 26
Full
Feb 3
Last Quarter

Hourly Weather History & Observations

Time (CST) Temp. Windchill Dew Point Humidity Pressure Visibility Wind Dir Wind Speed Gust Speed Precip Events Conditions
12:52 AM 12.9 °F -4.9 °F 6.1 °F 74% 30.15 in 10.0 mi NW 19.6 mph - N/A   Clear
1:52 AM 12.0 °F -4.5 °F 5.0 °F 73% 30.16 in 10.0 mi NW 16.1 mph - N/A   Clear
2:52 AM 10.9 °F -5.9 °F 3.0 °F 70% 30.19 in 10.0 mi NW 16.1 mph - N/A   Clear
3:52 AM 9.0 °F -7.9 °F 3.0 °F 77% 30.20 in 10.0 mi WNW 15.0 mph - N/A   Clear
4:52 AM 8.1 °F -8.4 °F 3.0 °F 80% 30.21 in 10.0 mi WNW 13.8 mph - N/A   Clear
5:52 AM 10.9 °F -0.8 °F 6.1 °F 81% 30.22 in 10.0 mi WNW 8.1 mph - N/A   Overcast
6:52 AM 12.0 °F -0.4 °F 7.0 °F 80% 30.25 in 10.0 mi NW 9.2 mph - N/A   Overcast
7:52 AM 10.9 °F 1.4 °F 7.0 °F 84% 30.25 in 10.0 mi WSW 5.8 mph - N/A   Scattered Clouds
8:52 AM 9.0 °F -0.9 °F 6.1 °F 88% 30.28 in 10.0 mi West 5.8 mph - N/A   Clear
9:52 AM 14.0 °F 2.9 °F 9.0 °F 80% 30.30 in 10.0 mi West 8.1 mph - N/A   Clear
10:52 AM 17.1 °F 7.6 °F 10.9 °F 77% 30.31 in 10.0 mi West 6.9 mph - N/A   Clear
11:52 AM 19.0 °F 11.1 °F 12.0 °F 74% 30.30 in 10.0 mi NW 5.8 mph - N/A   Clear
12:52 PM 19.9 °F - 12.9 °F 74% 30.26 in 10.0 mi Calm Calm - 0.01 in   Clear
1:52 PM 21.0 °F 10.6 °F 14.0 °F 74% 30.26 in 9.0 mi SW 9.2 mph - N/A   Clear
2:52 PM 21.0 °F 10.6 °F 14.0 °F 74% 30.26 in 9.0 mi SW 9.2 mph - N/A   Clear
3:52 PM 21.0 °F 9.9 °F 15.1 °F 78% 30.24 in 9.0 mi SSW 10.4 mph - N/A   Clear
4:52 PM 19.0 °F 9.0 °F 14.0 °F 81% 30.24 in 10.0 mi SSW 8.1 mph - N/A   Clear
5:52 PM 15.1 °F 4.2 °F 12.0 °F 88% 30.23 in 9.0 mi South 8.1 mph - N/A   Clear
6:52 PM 16.0 °F 2.3 °F 12.0 °F 84% 30.22 in 9.0 mi South 12.7 mph - N/A   Clear
7:52 PM 15.1 °F 1.8 °F 12.0 °F 88% 30.20 in 9.0 mi South 11.5 mph - N/A   Clear
8:52 PM 14.0 °F 2.0 °F 10.9 °F 88% 30.17 in 8.0 mi South 9.2 mph - N/A   Clear
9:52 PM 15.1 °F -0.1 °F 10.9 °F 84% 30.14 in 8.0 mi South 15.0 mph - N/A   Clear
10:52 PM 15.1 °F -0.1 °F 12.0 °F 88% 30.12 in 8.0 mi South 15.0 mph - N/A   Clear
11:52 PM 17.1 °F 2.5 °F 12.9 °F 84% 30.09 in 9.0 mi South 15.0 mph - N/A   Clear